Weather History for K20U - January, 2013

Change the Weather History Date:

Friday, January 11, 2013

  Actual Average (KGDV) Record (KGDV)
Temperature  
Mean Temperature 10 °F -  
Max Temperature 19 °F 21 °F 46 °F (2006)
Min Temperature 0 °F 4 °F -25 °F (1997)
Degree Days  
Heating Degree Days 56    
Moisture  
Dew Point 7 °F    
Average Humidity 91    
Maximum Humidity 100    
Minimum Humidity 78    
Precipitation  
Precipitation 4.68 in - - ()
Sea Level Pressure  
Sea Level Pressure 29.70 in    
Wind  
Wind Speed 20 mph (NNW)    
Max Wind Speed 29 mph    
Max Gust Speed 33 mph    
Visibility 3 miles    
Events Rain , Snow    
Averages and records for this station are not official NWS values.
T = Trace of Precipitation, MM = Missing Value Source: NWS Daily Summary

Daily Weather History Graph

Daily Weather History Graph

Search for Another Location

Airport or City:

Trip Planner

Search our weather history database for the weather conditions in past years. The results will help you decide how hot, cold, wet, or windy it might be!

Date:

Astronomy

Jan. 11, 2013 Rise Set
Actual Time 7:39 AM MST 4:29 PM MST
Civil Twilight 7:04 AM MST 5:03 PM MST
Nautical Twilight 6:26 AM MST 5:41 PM MST
Astronomical Twilight 5:49 AM MST 6:18 PM MST
Moon 7:11 AM MST (1/11) 4:54 PM MST (1/11)
Length of Visible Light 9h 59m
Length of Day
8h 50m
Waning Crescent, 0% of the Moon is Illuminated
Jan 11
Waning Crescent
Jan 11
New
Jan 18
First Quarter
Jan 26
Full
Feb 3
Last Quarter

Hourly Weather History & Observations

Time (MST) Temp. Windchill Dew Point Humidity Pressure Visibility Wind Dir Wind Speed Gust Speed Precip Events Conditions
12:15 AM 19.4 °F - 19.4 °F 100% 29.57 in 0.8 mi North - - N/A   Overcast
12:35 AM 19.4 °F - 19.4 °F 100% 29.58 in 0.8 mi North - - N/A Snow Light Snow
12:55 AM 19.4 °F 5.0 °F 19.4 °F 100% 29.57 in 0.8 mi North 16.1 mph - 0.01 in Snow Light Snow
1:15 AM 19.4 °F - 19.4 °F 100% 29.58 in 1.5 mi North - - 0.02 in Snow Light Snow
1:35 AM 19.4 °F - 17.6 °F 93% 29.58 in 2.5 mi North - - 0.05 in Snow Light Snow
1:55 AM 17.6 °F - 17.6 °F 100% 29.59 in 3.0 mi North - - 0.07 in Snow Light Snow
2:15 AM 17.6 °F - 17.6 °F 100% 29.59 in 5.0 mi North - - 0.01 in Snow Light Snow
2:35 AM 17.6 °F - 15.8 °F 93% 29.59 in 4.0 mi North - - 0.01 in Rain Light Freezing Rain
2:55 AM 17.6 °F - 15.8 °F 93% 29.59 in 2.5 mi North - - 0.07 in Snow Light Snow
3:15 AM 15.8 °F - 15.8 °F 100% 29.59 in 2.5 mi North - - N/A Rain Light Freezing Rain
3:35 AM 15.8 °F - 15.8 °F 100% 29.59 in 2.5 mi North - - N/A Snow Light Snow
3:55 AM 15.8 °F - 14.0 °F 93% 29.58 in 3.0 mi North - - N/A Snow Light Snow
4:15 AM 15.8 °F - 14.0 °F 93% 29.59 in 5.0 mi North - - N/A Snow Light Snow
4:35 AM 15.8 °F - 14.0 °F 93% 29.60 in 2.5 mi North - - N/A   Overcast
4:55 AM 14.0 °F - 14.0 °F 100% 29.60 in 4.0 mi North - - 0.02 in Snow Light Snow
5:15 AM 15.8 °F - 14.0 °F 93% 29.60 in 2.0 mi North - - N/A Snow Light Snow
5:35 AM 14.0 °F - 12.2 °F 93% 29.61 in 2.5 mi North - - N/A Snow Light Snow
5:55 AM 14.0 °F - 12.2 °F 93% 29.61 in 3.0 mi North - - N/A Snow Light Snow
6:15 AM 14.0 °F - 10.4 °F 86% 29.62 in 4.0 mi North - - 0.01 in Snow Light Snow
6:35 AM 12.2 °F - 10.4 °F 92% 29.63 in 7.0 mi North - - 0.03 in Snow Light Snow
6:55 AM 12.2 °F - 10.4 °F 92% 29.63 in 5.0 mi North - - 0.04 in Snow Light Snow
7:15 AM 12.2 °F - 10.4 °F 92% 29.63 in 5.0 mi North - - 0.01 in Snow Light Snow
7:35 AM 12.2 °F - 10.4 °F 92% 29.62 in 5.0 mi North - - 0.04 in Snow Light Snow
7:55 AM 12.2 °F - 10.4 °F 92% 29.59 in 10.0 mi North - - 0.05 in Snow Light Snow
8:15 AM 12.2 °F - 10.4 °F 92% 29.63 in 10.0 mi North - - N/A Snow Light Snow
8:35 AM 12.2 °F - 10.4 °F 92% 29.62 in 7.0 mi North - - 0.01 in Snow Light Snow
8:55 AM 12.2 °F - 10.4 °F 92% 29.64 in 8.0 mi North - - 0.02 in Snow Light Snow
9:15 AM 12.2 °F - 10.4 °F 92% 29.63 in 3.0 mi North - - 0.05 in Snow Light Snow
9:35 AM 10.4 °F - 8.6 °F 92% 29.66 in 5.0 mi North - - 0.19 in Snow Light Snow
9:55 AM 10.4 °F - 8.6 °F 92% 29.67 in 3.0 mi North - - 0.24 in Snow Light Snow
10:15 AM 10.4 °F - 8.6 °F 92% 29.68 in 3.0 mi North - - 0.03 in Snow Light Snow
10:35 AM 10.4 °F - 8.6 °F 92% 29.67 in 2.5 mi North - - 0.17 in Snow Light Snow
10:55 AM 10.4 °F - 8.6 °F 92% 29.67 in 1.5 mi North - - 0.27 in Snow Light Snow
11:15 AM 10.4 °F - 8.6 °F 92% 29.68 in 1.2 mi North - - 0.11 in Snow Light Snow
11:35 AM 10.4 °F - 8.6 °F 92% 29.68 in 1.0 mi North - - 0.26 in Snow Light Snow
11:55 AM 8.6 °F - 6.8 °F 92% 29.68 in 1.5 mi North - - 0.39 in Snow Light Snow
12:15 PM 8.6 °F - 6.8 °F 92% 29.67 in 2.0 mi North - - 0.06 in Snow Light Snow
12:35 PM 8.6 °F - 6.8 °F 92% 29.68 in 1.8 mi North - - 0.17 in Snow Light Snow
12:55 PM 8.6 °F - 6.8 °F 92% 29.67 in 1.8 mi North - - 0.31 in Snow Light Snow
1:15 PM 8.6 °F - 6.8 °F 92% 29.68 in 2.5 mi North - - 0.06 in Snow Light Snow
1:35 PM 8.6 °F - 6.8 °F 92% 29.68 in 3.0 mi North - - 0.12 in Snow Light Snow
1:55 PM 8.6 °F - 5.0 °F 85% 29.67 in 3.0 mi North - - 0.18 in Snow Light Snow
2:15 PM 8.6 °F - 5.0 °F 85% 29.69 in 3.0 mi North - - 0.03 in Snow Light Snow
2:35 PM 6.8 °F - 5.0 °F 92% 29.70 in 4.0 mi North - - 0.07 in Snow Light Snow
2:55 PM 6.8 °F - 5.0 °F 92% 29.72 in 4.0 mi North - - 0.10 in Snow Light Snow
3:15 PM 6.8 °F - 3.2 °F 85% 29.73 in 4.0 mi North - - 0.02 in Snow Light Snow
3:35 PM 6.8 °F - 3.2 °F 85% 29.72 in 3.0 mi North - - 0.08 in Snow Light Snow
3:55 PM 5.0 °F - 3.2 °F 92% 29.73 in 2.5 mi North - - 0.02 in Snow Light Snow
4:15 PM 5.0 °F - 1.4 °F 85% 29.73 in 4.0 mi North - - 0.02 in Snow Light Snow
4:35 PM 5.0 °F - 1.4 °F 85% 29.75 in 5.0 mi North - - 0.04 in Snow Light Snow
4:55 PM 5.0 °F -14.2 °F 1.4 °F 85% 29.76 in 3.0 mi North 17.3 mph 27.6 mph 0.08 in Snow Light Snow
5:15 PM 5.0 °F - 1.4 °F 85% 29.77 in 5.0 mi North - - 0.02 in Snow Light Snow
5:35 PM 5.0 °F - 1.4 °F 85% 29.78 in 4.0 mi North - - 0.06 in Snow Light Snow
5:55 PM 5.0 °F -16.7 °F -0.4 °F 78% 29.79 in 2.0 mi NW 23.0 mph 33.4 mph 0.12 in Snow Light Snow
6:15 PM 3.2 °F - -0.4 °F 85% 29.80 in 3.0 mi North - - 0.03 in Snow Light Snow
6:35 PM 3.2 °F - -0.4 °F 85% 29.80 in 3.0 mi North - - 0.08 in Snow Light Snow
6:55 PM 3.2 °F - -0.4 °F 85% 29.81 in 2.5 mi North - - 0.17 in Snow Light Snow
7:15 PM 3.2 °F - -0.4 °F 85% 29.81 in 2.0 mi North - - 0.10 in Snow Light Snow
7:35 PM 3.2 °F - -0.4 °F 85% 29.82 in 1.8 mi North - - 0.31 in Snow Light Snow
7:55 PM 1.4 °F - -0.4 °F 92% 29.82 in 2.0 mi North - - 0.41 in Snow Light Snow
8:15 PM 1.4 °F - -0.4 °F 92% 29.83 in 1.0 mi North - - 0.22 in Snow Light Snow
8:35 PM 1.4 °F - -0.4 °F 92% 29.83 in 0.8 mi North - - 0.81 in Snow Light Snow
8:55 PM 1.4 °F - -0.4 °F 92% 29.84 in 1.2 mi North - - 1.00 in Snow Light Snow
9:15 PM 1.4 °F - -2.2 °F 85% 29.84 in 1.2 mi North - - 0.06 in Snow Light Snow
9:35 PM 1.4 °F - -2.2 °F 85% 29.85 in 1.0 mi North - - 0.14 in Snow Light Snow
9:55 PM 1.4 °F -23.5 °F -2.2 °F 85% 29.86 in 2.0 mi NW 28.8 mph 33.4 mph 0.20 in Snow Light Snow
10:15 PM 1.4 °F - -2.2 °F 85% 29.86 in 1.5 mi North - - 0.06 in Snow Light Snow
10:35 PM -0.4 °F - -2.2 °F 92% 29.87 in 0.8 mi North - - 0.21 in Snow Light Snow
10:55 PM -0.4 °F - -2.2 °F 92% 29.88 in 0.8 mi North - - 0.39 in Snow Light Snow
11:15 PM -0.4 °F -23.3 °F -2.2 °F 92% 29.89 in 0.5 mi NNW 21.9 mph 29.9 mph 0.22 in Snow Snow
11:35 PM -0.4 °F -23.3 °F -2.2 °F 92% 29.91 in 0.8 mi NNW 21.9 mph 28.8 mph 0.46 in Snow Light Snow